Вернуться в каталог

STARLINK-36094

АктивенСвязьVLEO
NORAD 66851·PAYLOAD·🇺🇸 United States

Запущен Dec 2, 2025 с Cape Canaveral Space Force Station

Loading…

Ближайшие Пролёты (ближайшие 24 часа)

TLE

СвежийSource: CelesTrak SupGP

Эпоха: Sep 15, 2026, 04:10 UTC

1 66851C 25281D   26258.17409722  .00048960  00000+0  17725-2 0  2587
2 66851  43.0020 353.2789 0001455 264.5480 170.2314 15.27568388    10

Отслеживайте STARLINK-36094 в реальном времени с AllMySat

Download on the App Store